Location: McCall
(45.0000°N, 116.0000°W)
Time: 15:25:30
(UTC-06:00)

Amateur Radio Satellites - All Passes

Search period start: 23 August 2017 14:55
Search period end: 24 August 2017 14:55
Location: McCall, 45.0000°N, 116.0000°W

Satellite Date Start Highest point End Downlink Frequencies (MHz)
Time Altitude Azimuth
Tancredo 1 23 Aug 14:58:22 15:01:16 82° 28° (NNE) 15:04:10 437.200
ITAMSAT 1 23 Aug 15:01:57 15:05:30 19° 60° (ENE) 15:09:04 435.822/435.867
Gurwin Techsat 1B 23 Aug 15:10:52 15:16:01 51° 260° (W) 15:21:14 435.225
Oscar 19 23 Aug 15:14:00 15:18:34 32° 264° (W) 15:23:12 437.125/150
ISS 23 Aug 15:22:02 15:25:12 45° 21° (NNE) 15:28:22 437.550
nSIGHT-1 23 Aug 15:26:29 15:29:40 49° 23° (NNE) 15:32:50 .
YUBILEINY 23 Aug 15:30:16 15:37:04 26° 80° (E) 15:43:51 435.215
UKube-1 23 Aug 15:33:00 15:37:20 78° 104° (ESE) 15:41:38 .
BEESAT 23 Aug 15:36:57 15:37:33 10° 87° (E) 15:38:09 436.000
AO-7 23 Aug 15:37:51 15:46:02 61° 64° (ENE) 15:54:13 .
AO-85 23 Aug 15:41:51 15:45:14 22° 246° (WSW) 15:48:48 145.980
BEESAT 3 23 Aug 15:44:43 15:45:45 11° 252° (WSW) 15:46:46 437.485
SPROUT 23 Aug 15:56:32 15:57:38 11° 301° (WNW) 15:58:44 437.525
DX 1 23 Aug 16:01:11 16:05:11 36° 291° (WNW) 16:09:09 434.975-435.025
BEESAT 2 23 Aug 16:03:44 16:06:44 20° 247° (WSW) 16:09:42 435.950
ITUPSAT 1 23 Aug 16:10:38 16:14:25 23° 94° (E) 16:18:12 437.325
VELOX 1 23 Aug 16:11:42 16:12:50 11° 302° (WNW) 16:13:57 145.980
50 SAT 23 Aug 16:21:08 16:22:00 11° 297° (WNW) 16:22:51 437.505
MOZHAYETS 4 23 Aug 16:28:30 16:32:36 30° 96° (E) 16:36:41
Tancredo 1 23 Aug 16:34:41 16:36:02 13° 226° (SW) 16:37:23 437.200
ITAMSAT 1 23 Aug 16:39:18 16:44:28 66° 258° (WSW) 16:49:39 435.822/435.867
DOVE 4 23 Aug 16:39:40 16:42:01 13° 59° (ENE) 16:44:18 437.250
RS-15 23 Aug 16:46:36 16:56:57 29° 1° (N) 17:07:03 29.354- 29.394
CUBESAT XI-V 23 Aug 16:57:49 17:00:11 14° 89° (E) 17:02:32 437.345
ISS 23 Aug 16:58:39 17:01:36 32° 220° (SW) 17:04:33 437.550
nSIGHT-1 23 Aug 17:03:05 17:05:55 27° 221° (SW) 17:08:43 .
UKube-1 23 Aug 17:10:57 17:12:44 12° 301° (WNW) 17:14:31 .
BEESAT 23 Aug 17:11:11 17:15:59 89° 104° (ESE) 17:20:46 436.000
YUBILEINY 23 Aug 17:24:14 17:33:00 73° 281° (W) 17:41:48 435.215
AO-7 23 Aug 17:31:51 17:39:12 34° 264° (W) 17:46:37 .
CUTE-I 23 Aug 17:33:39 17:36:35 15° 57° (ENE) 17:39:30 437.470
ITUPSAT 1 23 Aug 17:47:54 17:52:25 43° 291° (WNW) 17:56:55 437.325
HO-68 23 Aug 17:52:04 17:55:30 14° 47° (NE) 17:58:56 435.675
KKS-1 23 Aug 17:54:29 17:57:50 21° 93° (E) 18:01:09 437.445
MOZHAYETS 4 23 Aug 18:05:40 18:09:43 30° 293° (WNW) 18:13:45
NUDT-PHONESAT 23 Aug 18:09:54 18:12:16 17° 65° (ENE) 18:14:39 437.300
DOVE 4 23 Aug 18:13:40 18:18:56 84° 76° (ENE) 18:24:04 437.250
LilacSat-2 23 Aug 18:15:04 18:18:18 27° 69° (ENE) 18:21:34 437.200
XW-2D 23 Aug 18:15:19 18:18:30 26° 68° (ENE) 18:21:41 145.860 - 145.880
STARS 23 Aug 18:24:23 18:27:21 18° 92° (E) 18:30:18 437.465
XW-2B 23 Aug 18:26:12 18:29:36 33° 70° (ENE) 18:33:02 145.730 - 145.750
CUBESAT XI-V 23 Aug 18:33:20 18:38:03 70° 285° (WNW) 18:42:43 437.345
XW-2C 23 Aug 18:45:07 18:48:48 57° 73° (ENE) 18:52:32 145.795 - 145.815
BEESAT 23 Aug 18:50:58 18:53:03 13° 303° (WNW) 18:55:08 436.000
XW-2F 23 Aug 18:54:33 18:58:16 71° 76° (ENE) 19:02:03 145.980 - 146.000
CUTE 1.7 + AOD 2 23 Aug 18:55:00 18:57:38 16° 63° (ENE) 19:00:17 437.475
O/OREOS (USA 219) 23 Aug 18:58:33 19:02:35 30° 57° (ENE) 19:06:37 437.305
RS-15 23 Aug 19:01:59 19:13:36 45° 34° (NE) 19:24:37 29.354- 29.394
CUTE-I 23 Aug 19:10:31 19:15:53 89° 260° (W) 19:21:16 437.470
KAITUO 1B 23 Aug 19:14:13 19:17:56 83° 257° (WSW) 19:21:43 145.475/437.950
YUBILEINY 23 Aug 19:26:15 19:31:35 17° 304° (NW) 19:36:56 435.215
UWE-3 23 Aug 19:26:52 19:27:55 11° 60° (ENE) 19:28:56 435.000/436.395/437.385
KKS-1 23 Aug 19:30:23 19:34:34 41° 290° (WNW) 19:38:42 437.445
HO-68 23 Aug 19:34:50 19:41:51 61° 68° (ENE) 19:48:52 435.675
SEEDS 23 Aug 19:35:32 19:39:03 26° 67° (ENE) 19:42:35 437.485
CUBEBUG 2 23 Aug 19:38:20 19:41:42 24° 67° (ENE) 19:45:02 437.445
NUDT-PHONESAT 23 Aug 19:42:25 19:45:51 37° 262° (W) 19:49:20 437.300
LilacSat-2 23 Aug 19:49:30 19:52:33 23° 266° (W) 19:55:38 437.200
XW-2D 23 Aug 19:49:34 19:52:38 23° 266° (W) 19:55:44 145.860 - 145.880
XW-2A 23 Aug 19:54:04 19:56:57 28° 70° (ENE) 19:59:52 145.665 - 145.685
DOVE 4 23 Aug 19:54:39 19:57:10 13° 272° (W) 19:59:38 437.250
ZACube-1 23 Aug 19:58:19 20:00:14 13° 61° (ENE) 20:02:09 437.345
STARS 23 Aug 19:59:45 20:03:57 47° 289° (WNW) 20:08:06 437.465
XW-2B 23 Aug 20:01:11 20:03:53 18° 267° (W) 20:06:35 145.730 - 145.750
AAUSAT CUBESAT 2 23 Aug 20:11:06 20:14:42 29° 68° (ENE) 20:18:19 437.432
AO-73 23 Aug 20:16:31 20:19:17 18° 64° (ENE) 20:22:05 145.935
XW-2C 23 Aug 20:22:15 20:23:22 11° 271° (W) 20:24:29 145.795 - 145.815
STRAND 1 23 Aug 20:23:43 20:27:53 25° 94° (E) 20:32:01 437.568
CUTE 1.7 + AOD 2 23 Aug 20:28:54 20:33:03 54° 261° (W) 20:37:15 437.475
O/OREOS (USA 219) 23 Aug 20:37:56 20:41:58 31° 255° (WSW) 20:45:59 437.305
CUTE-I 23 Aug 20:54:33 20:56:39 12° 273° (W) 20:58:47 437.470
Oscar 11 23 Aug 20:56:23 21:00:17 35° 69° (ENE) 21:04:14 .
UWE-3 23 Aug 20:59:34 21:03:45 81° 257° (WSW) 21:07:55 435.000/436.395/437.385
SEEDS 23 Aug 21:10:54 21:14:37 30° 264° (W) 21:18:23 437.485
CUBEBUG 2 23 Aug 21:14:22 21:18:12 33° 264° (W) 21:21:59 437.445
RS-15 23 Aug 21:15:03 21:27:03 73° 241° (WSW) 21:38:23 29.354- 29.394
HO-68 23 Aug 21:24:01 21:29:59 28° 266° (W) 21:36:00 435.675
XW-2A 23 Aug 21:27:30 21:29:44 17° 267° (W) 21:31:59 145.665 - 145.685
Max Valier Satellite 23 Aug 21:28:33 21:30:14 13° 63° (ENE) 21:31:56 145.860
ZACube-1 23 Aug 21:31:54 21:36:00 65° 259° (W) 21:40:08 437.345
AAUSAT CUBESAT 2 23 Aug 21:46:34 21:50:07 27° 265° (W) 21:53:41 437.432
AO-73 23 Aug 21:51:16 21:55:12 44° 261° (W) 21:59:11 145.935
STRAND 1 23 Aug 22:02:24 22:07:14 44° 291° (WNW) 22:12:03 437.568
EO-88 23 Aug 22:13:25 22:16:40 31° 70° (ENE) 22:19:57 145.990 - 145.960
DELFI C3 23 Aug 22:20:56 22:24:54 69° 75° (ENE) 22:28:54 145.870
Oscar 11 23 Aug 22:33:02 22:36:30 23° 266° (W) 22:39:59 .
UNISAT 6 23 Aug 22:41:14 22:44:04 17° 92° (E) 22:46:55 437.425
SO-50 23 Aug 22:48:35 22:52:11 24° 114° (ESE) 22:55:48 436.795
Max Valier Satellite 23 Aug 23:00:05 23:03:39 50° 260° (W) 23:07:14 145.860
PCSat 23 Aug 23:07:30 23:12:49 61° 116° (ESE) 23:18:11 145.827
FO-29 23 Aug 23:13:24 23:18:57 75° 102° (ESE) 23:24:08 435.910
TIGRISAT 23 Aug 23:14:29 23:18:26 33° 97° (E) 23:22:25 435.000
PRISM 23 Aug 23:20:16 23:23:47 26° 96° (E) 23:27:14 437.425
RS-15 23 Aug 23:30:07 23:37:09 18° 264° (W) 23:44:01 29.354- 29.394
LO-87 23 Aug 23:32:13 23:35:31 36° 71° (ENE) 23:38:50 145.935 - 145.965
EO-88 23 Aug 23:47:50 23:50:25 18° 267° (W) 23:53:00 145.990 - 145.960
VELOX 1 23 Aug 23:57:58 23:59:55 13° 59° (ENE) 00:01:53 145.980
DELFI C3 23 Aug 23:59:26 00:00:07 10° 272° (W) 00:00:49 145.870
ESTCUBE 1 24 Aug 00:03:16 00:07:43 59° 72° (ENE) 00:12:11 437.505/2401.250
UNISAT 6 24 Aug 00:16:51 00:21:02 49° 288° (WNW) 00:25:17 437.425
SO-50 24 Aug 00:28:04 00:32:23 45° 312° (NW) 00:36:45 436.795
EO-79 24 Aug 00:28:23 00:29:58 12° 89° (E) 00:31:33 145.935-145.965
QB50P2 24 Aug 00:28:32 00:30:36 13° 90° (E) 00:32:39 145.880/145.840
NO-84 24 Aug 00:45:57 00:47:56 16° 131° (SE) 00:49:52 435.350 FM
TIGRISAT 24 Aug 00:51:27 00:54:59 25° 293° (WNW) 00:58:33 435.000
PCSat 24 Aug 00:52:05 00:56:37 26° 317° (NW) 01:01:11 145.827
DUCHIFAT 1 24 Aug 00:53:07 00:55:57 18° 92° (E) 00:58:48 145.980
PRISM 24 Aug 00:55:27 00:59:00 28° 293° (WNW) 01:02:31 437.425
UKube-1 24 Aug 00:57:37 00:57:54 10° 57° (ENE) 00:58:10 .
FO-29 24 Aug 00:59:56 01:03:19 17° 304° (NW) 01:06:36 435.910
LO-87 24 Aug 01:06:54 01:09:06 15° 268° (W) 01:11:16 145.935 - 145.965
SPROUT 24 Aug 01:12:49 01:17:05 82° 74° (ENE) 01:21:21 437.525
AIST 2D 24 Aug 01:15:34 01:19:08 75° 284° (WNW) 01:22:41 435.315
50 SAT 24 Aug 01:19:16 01:22:07 25° 69° (ENE) 01:24:58 437.505
DX 1 24 Aug 01:22:38 01:26:17 26° 66° (ENE) 01:29:57 434.975-435.025
M-CUBED/EXP-1 PRIME 24 Aug 01:28:44 01:33:01 59° 106° (ESE) 01:36:57 437.505
VELOX 1 24 Aug 01:31:17 01:35:44 80° 256° (WSW) 01:40:14 145.980
YUBILEINY 24 Aug 01:37:25 01:41:45 14° 53° (NE) 01:46:04 435.215
NANOSAT C BR1 24 Aug 01:39:07 01:43:17 62° 101° (E) 01:47:27 145.865
ESTCUBE 1 24 Aug 01:42:15 01:44:54 15° 270° (W) 01:47:33 437.505/2401.250
POLYITAN 1 24 Aug 01:47:08 01:51:23 85° 107° (ESE) 01:55:36 437.675
EO-79 24 Aug 02:01:59 02:06:10 66° 286° (WNW) 02:10:20 145.935-145.965
QB50P2 24 Aug 02:02:36 02:06:46 59° 287° (WNW) 02:10:54 145.880/145.840
SO-50 24 Aug 02:12:30 02:14:00 11° 334° (NNW) 02:15:29 436.795
BUGSAT 1 24 Aug 02:13:58 02:17:42 35° 98° (E) 02:21:25 437.445
NO-84 24 Aug 02:22:15 02:25:04 46° 328° (NNW) 02:27:50 435.350 FM
DUCHIFAT 1 24 Aug 02:27:51 02:31:50 43° 289° (WNW) 02:35:48 145.980
UKube-1 24 Aug 02:28:50 02:33:10 83° 76° (ENE) 02:37:31 .
BEESAT 24 Aug 02:43:45 02:46:46 17° 60° (ENE) 02:49:47 436.000
50 SAT 24 Aug 02:52:09 02:54:45 20° 265° (W) 02:57:20 437.505
DX 1 24 Aug 02:58:24 03:02:20 32° 263° (W) 03:06:19 434.975-435.025
M-CUBED/EXP-1 PRIME 24 Aug 03:04:11 03:06:54 16° 305° (NW) 03:09:29 437.505
NANOSAT C BR1 24 Aug 03:16:17 03:18:30 14° 299° (WNW) 03:20:43 145.865
ITUPSAT 1 24 Aug 03:19:00 03:23:15 34° 67° (ENE) 03:27:32 437.325
Oscar 19 24 Aug 03:22:38 03:27:53 77° 104° (ESE) 03:33:05 437.125/150
Gurwin Techsat 1B 24 Aug 03:24:50 03:30:03 54° 100° (E) 03:35:14 435.225
POLYITAN 1 24 Aug 03:25:25 03:26:29 11° 301° (WNW) 03:27:35 437.675
YUBILEINY 24 Aug 03:31:59 03:40:39 63° 77° (ENE) 03:49:15 435.215
MOZHAYETS 4 24 Aug 03:32:05 03:36:14 36° 69° (ENE) 03:40:25
AO-7 24 Aug 03:39:24 03:43:51 15° 87° (E) 03:48:17 .
BUGSAT 1 24 Aug 03:49:49 03:52:51 21° 295° (WNW) 03:55:53 437.445
NO-84 24 Aug 04:01:26 04:03:01 14° 348° (NNW) 04:04:36 435.350 FM
CUBESAT XI-V 24 Aug 04:02:45 04:05:52 18° 62° (ENE) 04:09:00 437.345
BEESAT 24 Aug 04:19:20 04:24:02 64° 259° (WSW) 04:28:47 436.000
ITAMSAT 1 24 Aug 04:50:14 04:55:02 37° 97° (E) 04:59:47 435.822/435.867
KKS-1 24 Aug 04:54:12 04:57:51 25° 65° (ENE) 05:01:31 437.445
ITUPSAT 1 24 Aug 04:56:58 05:01:05 29° 264° (W) 05:05:14 437.325
Oscar 19 24 Aug 05:03:23 05:06:34 17° 302° (WNW) 05:09:45 437.125/150
Gurwin Techsat 1B 24 Aug 05:05:31 05:09:38 23° 298° (WNW) 05:13:44 435.225
MOZHAYETS 4 24 Aug 05:09:44 05:13:28 25° 266° (W) 05:17:13
STARS 24 Aug 05:22:41 05:26:01 21° 64° (ENE) 05:29:20 437.465
YUBILEINY 24 Aug 05:29:38 05:36:50 30° 278° (W) 05:44:02 435.215
AO-7 24 Aug 05:29:38 05:38:01 75° 107° (ESE) 05:46:18 .
BEESAT 3 24 Aug 05:32:51 05:36:50 71° 123° (ESE) 05:40:53 437.485
CUBESAT XI-V 24 Aug 05:38:11 05:42:47 58° 260° (W) 05:47:26 437.345
SO-50 24 Aug 05:38:32 05:39:32 11° 25° (NNE) 05:40:33 436.795
NO-84 24 Aug 05:39:53 05:41:23 13° 11° (N) 05:42:54 435.350 FM
BEESAT 2 24 Aug 05:55:26 05:59:11 40° 118° (ESE) 06:03:00 435.950
AO-85 24 Aug 05:57:25 06:01:19 73° 123° (ESE) 06:05:14 145.980
PCSat 24 Aug 06:10:57 06:14:28 17° 35° (NE) 06:18:00 145.827
DOVE 4 24 Aug 06:12:06 06:15:08 18° 90° (E) 06:18:05 437.250
ITAMSAT 1 24 Aug 06:29:52 06:34:23 31° 295° (WNW) 06:38:54 435.822/435.867
KKS-1 24 Aug 06:30:10 06:34:16 35° 263° (W) 06:38:22 437.445
STARS 24 Aug 06:57:56 07:02:05 41° 261° (W) 07:06:17 437.465
NUDT-PHONESAT 24 Aug 07:11:13 07:13:43 17° 92° (E) 07:16:12 437.300
BEESAT 3 24 Aug 07:12:06 07:14:52 17° 322° (NW) 07:17:38 437.485
NO-84 24 Aug 07:16:36 07:19:23 39° 31° (NNE) 07:22:18 435.350 FM
SO-50 24 Aug 07:16:55 07:21:14 40° 46° (NE) 07:25:34 436.795
XW-2D 24 Aug 07:19:22 07:22:47 29° 96° (E) 07:26:10 145.860 - 145.880
LilacSat-2 24 Aug 07:19:54 07:23:25 31° 96° (E) 07:26:53 437.200
AO-7 24 Aug 07:23:14 07:30:05 30° 307° (NW) 07:36:54 .
CUTE-I 24 Aug 07:25:53 07:30:35 31° 95° (E) 07:35:15 437.470
XW-2B 24 Aug 07:30:23 07:34:00 37° 98° (E) 07:37:36 145.730 - 145.750
BEESAT 2 24 Aug 07:33:41 07:37:04 25° 317° (NW) 07:40:29 435.950
AO-85 24 Aug 07:39:41 07:42:11 16° 324° (NW) 07:44:41 145.980
STRAND 1 24 Aug 07:41:14 07:46:03 43° 68° (ENE) 07:50:51 437.568
DOVE 4 24 Aug 07:48:50 07:53:09 45° 289° (WNW) 07:57:14 437.250
XW-2C 24 Aug 07:49:32 07:53:23 66° 102° (ESE) 07:57:12 145.795 - 145.815
PCSat 24 Aug 07:53:22 07:58:50 74° 57° (ENE) 08:04:14 145.827
XW-2F 24 Aug 07:58:29 08:02:20 80° 100° (E) 08:06:11 145.980 - 146.000
CUTE 1.7 + AOD 2 24 Aug 08:12:07 08:15:32 23° 93° (E) 08:18:55 437.475
KAITUO 1B 24 Aug 08:17:08 08:20:56 76° 286° (WNW) 08:24:43 145.475/437.950
NUDT-PHONESAT 24 Aug 08:44:15 08:47:44 37° 289° (WNW) 08:51:13 437.300
XW-2A 24 Aug 08:46:13 08:48:59 23° 95° (E) 08:51:45 145.665 - 145.685
UWE-3 24 Aug 08:47:39 08:50:32 17° 92° (E) 08:53:27 435.000/436.395/437.385
HO-68 24 Aug 08:47:46 08:54:46 53° 101° (E) 09:01:44 435.675
SEEDS 24 Aug 08:52:06 08:56:04 37° 97° (E) 09:00:01 437.485
XW-2D 24 Aug 08:53:46 08:56:49 22° 293° (WNW) 08:59:50 145.860 - 145.880
NO-84 24 Aug 08:54:11 08:56:38 23° 227° (SW) 08:59:13 435.350 FM
LilacSat-2 24 Aug 08:54:30 08:57:31 22° 293° (WNW) 09:00:31 437.200
SO-50 24 Aug 08:57:39 09:01:33 28° 245° (WSW) 09:05:30 436.795
Tancredo 1 24 Aug 09:00:24 09:03:06 37° 143° (SE) 09:05:50 437.200
CUBEBUG 2 24 Aug 09:02:14 09:06:14 40° 98° (E) 09:10:19 437.445
XW-2B 24 Aug 09:05:15 09:07:55 18° 295° (WNW) 09:10:35 145.730 - 145.750
CUTE-I 24 Aug 09:05:48 09:10:41 38° 293° (WNW) 09:15:32 437.470
O/OREOS (USA 219) 24 Aug 09:13:32 09:16:59 22° 102° (ESE) 09:20:27 437.305
ZACube-1 24 Aug 09:18:22 09:21:38 20° 93° (E) 09:24:55 437.345
STRAND 1 24 Aug 09:21:11 09:25:23 25° 266° (W) 09:29:36 437.568
XW-2C 24 Aug 09:25:42 09:27:02 12° 298° (WNW) 09:28:22 145.795 - 145.815
AAUSAT CUBESAT 2 24 Aug 09:25:52 09:29:50 39° 98° (E) 09:33:44 437.432
FO-29 24 Aug 09:25:53 09:32:47 46° 68° (ENE) 09:39:01 435.910
RS-15 24 Aug 09:34:39 09:40:39 15° 93° (E) 09:46:40 29.354- 29.394
AO-73 24 Aug 09:36:49 09:40:34 28° 95° (E) 09:44:22 145.935
PCSat 24 Aug 09:38:08 09:41:35 17° 255° (WSW) 09:45:02 145.827
ISS 24 Aug 09:39:39 09:42:26 26° 138° (SE) 09:45:13 437.550
UNISAT 6 24 Aug 09:42:08 09:45:09 19° 64° (ENE) 09:48:10 437.425
nSIGHT-1 24 Aug 09:42:47 09:45:39 29° 139° (SE) 09:48:32 .
CUTE 1.7 + AOD 2 24 Aug 09:47:31 09:51:27 36° 290° (WNW) 09:55:22 437.475
PRISM 24 Aug 10:11:12 10:14:39 26° 66° (ENE) 10:18:07 437.425
TIGRISAT 24 Aug 10:14:59 10:18:55 36° 70° (ENE) 10:22:50 435.000
Oscar 11 24 Aug 10:17:01 10:21:19 55° 100° (E) 10:25:36 .
XW-2A 24 Aug 10:18:57 10:21:38 22° 291° (WNW) 10:24:20 145.665 - 145.685
UWE-3 24 Aug 10:23:06 10:27:13 47° 288° (WNW) 10:31:25 435.000/436.395/437.385
SEEDS 24 Aug 10:28:15 10:31:32 22° 294° (WNW) 10:34:48 437.485
Max Valier Satellite 24 Aug 10:29:25 10:31:03 12° 90° (E) 10:32:42 145.860
Tancredo 1 24 Aug 10:35:34 10:38:16 35° 341° (NNW) 10:41:00 437.200
HO-68 24 Aug 10:35:56 10:42:13 34° 300° (WNW) 10:48:30 435.675
CUBEBUG 2 24 Aug 10:39:29 10:42:37 21° 294° (WNW) 10:45:49 437.445
M-CUBED/EXP-1 PRIME 24 Aug 10:43:17 10:45:52 15° 54° (NE) 10:48:28 437.505
O/OREOS (USA 219) 24 Aug 10:51:56 10:56:07 40° 300° (WNW) 11:00:23 437.305
ZACube-1 24 Aug 10:54:00 10:58:03 40° 289° (WNW) 11:02:09 437.345
AAUSAT CUBESAT 2 24 Aug 11:01:56 11:05:01 20° 295° (WNW) 11:08:05 437.432
FO-29 24 Aug 11:11:02 11:17:51 38° 263° (W) 11:24:05 435.910
AO-73 24 Aug 11:13:01 11:16:45 29° 292° (WNW) 11:20:33 145.935
EO-88 24 Aug 11:13:24 11:16:43 31° 97° (E) 11:20:01 145.990 - 145.960
ISS 24 Aug 11:15:31 11:18:45 53° 336° (NNW) 11:21:59 437.550
UNISAT 6 24 Aug 11:17:27 11:21:34 44° 261° (W) 11:25:41 437.425
nSIGHT-1 24 Aug 11:18:43 11:21:55 49° 338° (NNW) 11:25:07 .
EO-79 24 Aug 11:22:55 11:24:45 13° 60° (ENE) 11:26:34 145.935-145.965
QB50P2 24 Aug 11:23:16 11:25:27 14° 61° (ENE) 11:27:38 145.880/145.840
DELFI C3 24 Aug 11:30:27 11:34:27 88° 107° (ESE) 11:38:24 145.870
RS-15 24 Aug 11:38:32 11:50:30 64° 116° (ESE) 12:02:36 29.354- 29.394
PRISM 24 Aug 11:46:08 11:49:48 30° 263° (W) 11:53:32 437.425
DUCHIFAT 1 24 Aug 11:46:57 11:49:44 18° 63° (ENE) 11:52:31 145.980
AIST 2D 24 Aug 11:51:21 11:54:43 48° 74° (ENE) 11:58:07 435.315
TIGRISAT 24 Aug 11:52:24 11:55:43 22° 266° (W) 11:59:02 435.000
Oscar 11 24 Aug 11:54:16 11:57:02 17° 297° (WNW) 11:59:48 .
ESTCUBE 1 24 Aug 11:56:19 11:57:23 11° 87° (E) 11:58:28 437.505/2401.250
Max Valier Satellite 24 Aug 12:01:35 12:05:10 49° 287° (WNW) 12:08:46 145.860
BEESAT 3 24 Aug 12:11:33 12:13:35 13° 34° (NNE) 12:15:36 437.485
Tancredo 1 24 Aug 12:11:39 12:13:57 21° 0° (N) 12:16:16 437.200
M-CUBED/EXP-1 PRIME 24 Aug 12:15:01 12:19:37 83° 251° (WSW) 12:24:19 437.505
LO-87 24 Aug 12:30:16 12:33:31 33° 97° (E) 12:36:44 145.935 - 145.965
NANOSAT C BR1 24 Aug 12:32:38 12:36:44 58° 73° (ENE) 12:40:51 145.865
POLYITAN 1 24 Aug 12:41:07 12:45:18 80° 75° (ENE) 12:49:30 437.675
AO-85 24 Aug 12:46:28 12:49:26 18° 39° (NE) 12:52:31 145.980
EO-88 24 Aug 12:47:29 12:50:11 19° 293° (WNW) 12:52:52 145.990 - 145.960
ISS 24 Aug 12:52:54 12:55:42 25° 356° (N) 12:58:30 437.550
EO-79 24 Aug 12:55:46 12:59:57 71° 258° (WSW) 13:04:09 145.935-145.965
nSIGHT-1 24 Aug 12:56:02 12:58:48 24° 357° (N) 13:01:34 .
QB50P2 24 Aug 12:56:34 13:00:45 63° 259° (W) 13:04:56 145.880/145.840
SPROUT 24 Aug 12:58:27 13:00:01 12° 89° (E) 13:01:35 437.525
Oscar 19 24 Aug 13:04:03 13:07:43 20° 61° (ENE) 13:11:26 437.125/150
BUGSAT 1 24 Aug 13:05:22 13:09:00 32° 69° (ENE) 13:12:37 437.445
Gurwin Techsat 1B 24 Aug 13:10:41 13:13:53 16° 58° (ENE) 13:17:06 435.225
VELOX 1 24 Aug 13:20:21 13:23:12 17° 91° (E) 13:26:00 145.980
DUCHIFAT 1 24 Aug 13:21:03 13:25:03 46° 261° (W) 13:29:06 145.980
AIST 2D 24 Aug 13:27:09 13:28:12 11° 270° (W) 13:29:16 435.315
ESTCUBE 1 24 Aug 13:30:12 13:34:47 83° 285° (WNW) 13:39:19 437.505/2401.250
Tancredo 1 24 Aug 13:46:54 13:49:38 36° 20° (NNE) 13:52:22 437.200
BEESAT 3 24 Aug 13:47:49 13:51:51 77° 54° (NE) 13:55:47 437.485
RS-15 24 Aug 13:51:42 14:03:35 51° 321° (NW) 14:15:30 29.354- 29.394
LO-87 24 Aug 14:04:22 14:06:42 17° 294° (WNW) 14:09:01 145.935 - 145.965
NANOSAT C BR1 24 Aug 14:10:44 14:12:49 13° 270° (W) 14:14:54 145.865
BEESAT 2 24 Aug 14:11:01 14:14:58 46° 49° (NE) 14:18:51 435.950
50 SAT 24 Aug 14:11:19 14:13:43 18° 94° (E) 14:16:05 437.505
UKube-1 24 Aug 14:15:58 14:17:29 12° 89° (E) 14:18:59 .
AO-85 24 Aug 14:25:58 14:30:16 76° 237° (WSW) 14:34:53 145.980
ISS 24 Aug 14:29:46 14:32:48 33° 16° (NNE) 14:35:49 437.550
SPROUT 24 Aug 14:32:09 14:36:23 68° 285° (WNW) 14:40:34 437.525
nSIGHT-1 24 Aug 14:32:43 14:35:46 35° 17° (NNE) 14:38:48 .
ITAMSAT 1 24 Aug 14:35:12 14:36:35 11° 54° (NE) 14:37:58 435.822/435.867
AO-7 24 Aug 14:39:49 14:46:47 31° 53° (NE) 14:53:44 .
BUGSAT 1 24 Aug 14:41:12 14:44:24 22° 266° (W) 14:47:36 437.445
Oscar 19 24 Aug 14:41:30 14:46:35 61° 259° (WSW) 14:51:44 437.125/150
DX 1 24 Aug 14:44:07 14:48:08 35° 98° (E) 14:52:06 434.975-435.025
YUBILEINY 24 Aug 14:44:45 14:48:28 13° 72° (ENE) 14:52:10 435.215
